Time,TemperatureF,DewpointF,PressureIn,WindDirection,WindDirectionDegrees,WindSpeedMPH,WindSpeedGustMPH,Humidity,HourlyPrecipIn,Conditions,Clouds,dailyrainin,SoftwareType,DateUTC
2013-06-02 00:03:00,71.4,61.9,28.91,SW,226,0.0,0.0,72,0.00,,SKC,0.00,VWS V14.00,2013-06-02 04:03:00,
2013-06-02 00:08:00,71.4,62.3,28.91,SW,226,0.0,0.0,73,0.00,,SKC,0.00,VWS V14.00,2013-06-02 04:08:00,
2013-06-02 00:13:00,71.4,62.3,28.91,SW,226,0.0,0.0,73,0.00,,SKC,0.00,VWS V14.00,2013-06-02 04:13:00,
2013-06-02 00:18:00,71.2,62.2,28.91,SW,226,0.0,0.0,73,0.00,,SKC,0.00,VWS V14.00,2013-06-02 04:18:00,
2013-06-02 00:23:00,71.2,62.2,28.91,SSE,152,0.0,0.0,73,0.00,,SKC,0.00,VWS V14.00,2013-06-02 04:23:00,
2013-06-02 00:28:00,71.2,62.5,28.91,SSE,168,0.0,0.0,74,0.00,,SKC,0.00,VWS V14.00,2013-06-02 04:28:00,
2013-06-02 00:33:00,71.2,62.5,28.91,SSE,168,0.0,0.0,74,0.00,,SKC,0.00,VWS V14.00,2013-06-02 04:33:00,
2013-06-02 00:38:00,71.1,62.4,28.91,SSE,168,0.0,0.0,74,0.00,,SKC,0.00,VWS V14.00,2013-06-02 04:38:00,
2013-06-02 00:43:00,71.1,62.7,28.91,SSE,168,0.0,0.0,75,0.00,,SKC,0.00,VWS V14.00,2013-06-02 04:43:00,
2013-06-02 00:48:00,70.9,62.6,28.91,SSE,168,0.0,0.0,75,0.00,,SKC,0.00,VWS V14.00,2013-06-02 04:48:00,
2013-06-02 00:53:00,70.9,62.6,28.91,SSE,168,0.0,0.0,75,0.00,,SKC,0.00,VWS V14.00,2013-06-02 04:53:00,
2013-06-02 00:58:00,70.7,62.4,28.91,SSE,168,0.0,0.0,75,0.00,,SKC,0.00,VWS V14.00,2013-06-02 04:58:00,
2013-06-02 01:03:00,70.5,62.6,28.91,SSE,168,0.0,0.0,76,0.00,,SKC,0.00,VWS V14.00,2013-06-02 05:03:00,
2013-06-02 01:08:00,70.3,62.4,28.91,SSE,168,0.0,0.0,76,0.00,,SKC,0.00,VWS V14.00,2013-06-02 05:08:00,
2013-06-02 01:13:00,70.2,62.2,28.91,SSE,168,0.0,0.0,76,0.00,,SKC,0.00,VWS V14.00,2013-06-02 05:13:00,
2013-06-02 01:18:00,70.2,62.6,28.91,SSE,168,0.0,0.0,77,0.00,,SKC,0.00,VWS V14.00,2013-06-02 05:18:00,
2013-06-02 01:23:00,70.2,62.6,28.91,SSE,168,0.0,0.0,77,0.00,,SKC,0.00,VWS V14.00,2013-06-02 05:23:00,
2013-06-02 01:28:00,70.0,62.5,28.91,SSE,168,0.0,0.0,77,0.00,,SKC,0.00,VWS V14.00,2013-06-02 05:28:00,
2013-06-02 01:33:00,70.0,62.5,28.91,SSE,168,0.0,0.0,77,0.00,,SKC,0.00,VWS V14.00,2013-06-02 05:33:00,
2013-06-02 01:38:00,70.0,62.5,28.91,SSE,168,0.0,0.0,77,0.00,,SKC,0.00,VWS V14.00,2013-06-02 05:38:00,
2013-06-02 01:43:00,70.0,62.8,28.91,SSE,168,0.0,0.0,78,0.00,,SKC,0.00,VWS V14.00,2013-06-02 05:43:00,
2013-06-02 01:48:00,69.8,62.6,28.91,SSE,168,0.0,0.0,78,0.00,,SKC,0.00,VWS V14.00,2013-06-02 05:48:00,
2013-06-02 01:53:00,70.0,62.8,28.91,SSE,168,0.0,0.0,78,0.00,,SKC,0.00,VWS V14.00,2013-06-02 05:53:00,
2013-06-02 01:58:00,70.0,62.8,28.91,SSE,168,0.0,0.0,78,0.00,,SKC,0.00,VWS V14.00,2013-06-02 05:58:00,
2013-06-02 02:03:00,70.0,62.8,28.91,SSE,168,0.0,0.0,78,0.00,,SKC,0.00,VWS V14.00,2013-06-02 06:03:00,
2013-06-02 02:08:00,70.0,62.8,28.91,SSE,168,0.0,0.0,78,0.00,,SKC,0.00,VWS V14.00,2013-06-02 06:08:00,
2013-06-02 02:13:00,69.8,62.6,28.91,SSE,168,0.0,0.0,78,0.00,,SKC,0.00,VWS V14.00,2013-06-02 06:13:00,
2013-06-02 02:18:00,70.0,63.2,28.91,SSE,168,0.0,0.0,79,0.00,,SKC,0.00,VWS V14.00,2013-06-02 06:18:00,
2013-06-02 02:23:00,69.8,63.0,28.91,SSE,168,0.0,0.0,79,0.00,,SKC,0.00,VWS V14.00,2013-06-02 06:23:00,
2013-06-02 02:28:00,69.8,63.0,28.91,SSE,168,0.0,0.0,79,0.00,,SKC,0.00,VWS V14.00,2013-06-02 06:28:00,
2013-06-02 02:33:00,69.8,63.0,28.94,SE,131,0.0,0.0,79,0.00,,SKC,0.00,VWS V14.00,2013-06-02 06:33:00,
2013-06-02 02:38:00,69.8,63.0,28.94,ESE,113,0.0,0.0,79,0.00,,SKC,0.00,VWS V14.00,2013-06-02 06:38:00,
2013-06-02 02:44:00,69.8,63.0,28.94,ESE,112,0.0,0.0,79,0.00,,SKC,0.00,VWS V14.00,2013-06-02 06:44:00,
2013-06-02 02:49:00,69.8,63.0,28.91,ESE,113,0.0,0.0,79,0.00,,SKC,0.00,VWS V14.00,2013-06-02 06:49:00,
2013-06-02 02:54:00,69.8,63.0,28.91,ESE,112,0.0,0.0,79,0.00,,SKC,0.00,VWS V14.00,2013-06-02 06:54:00,
2013-06-02 02:59:00,69.8,63.0,28.91,ESE,112,0.0,0.0,79,0.00,,SKC,0.00,VWS V14.00,2013-06-02 06:59:00,
2013-06-02 03:04:00,69.6,63.2,28.91,ESE,113,0.0,0.0,80,0.00,,SKC,0.00,VWS V14.00,2013-06-02 07:04:00,
2013-06-02 03:09:00,69.6,63.2,28.91,ESE,112,0.0,0.0,80,0.00,,SKC,0.00,VWS V14.00,2013-06-02 07:09:00,
2013-06-02 03:14:00,69.4,63.0,28.91,ESE,113,0.0,0.0,80,0.00,,SKC,0.00,VWS V14.00,2013-06-02 07:14:00,
2013-06-02 03:19:00,69.4,63.0,28.91,ESE,112,0.0,0.0,80,0.00,,SKC,0.00,VWS V14.00,2013-06-02 07:19:00,
2013-06-02 03:24:00,69.4,63.0,28.91,ESE,112,0.0,0.0,80,0.00,,SKC,0.00,VWS V14.00,2013-06-02 07:24:00,
2013-06-02 03:29:00,69.4,63.0,28.91,ESE,112,0.0,0.0,80,0.00,,SKC,0.00,VWS V14.00,2013-06-02 07:29:00,
2013-06-02 03:34:00,69.4,63.4,28.91,ESE,113,0.0,0.0,81,0.00,,SKC,0.00,VWS V14.00,2013-06-02 07:34:00,
2013-06-02 03:39:00,69.6,63.5,28.91,ESE,112,0.0,0.0,81,0.00,,SKC,0.00,VWS V14.00,2013-06-02 07:39:00,
2013-06-02 03:44:00,69.6,63.5,28.91,ESE,113,0.0,0.0,81,0.00,,SKC,0.00,VWS V14.00,2013-06-02 07:44:00,
2013-06-02 03:49:00,69.6,63.5,28.91,ESE,113,0.0,0.0,81,0.00,,SKC,0.00,VWS V14.00,2013-06-02 07:49:00,
2013-06-02 03:54:00,69.6,63.5,28.91,ESE,112,0.0,0.0,81,0.00,,SKC,0.00,VWS V14.00,2013-06-02 07:54:00,
2013-06-02 03:59:00,69.6,63.5,28.91,ESE,113,0.0,0.0,81,0.00,,SKC,0.00,VWS V14.00,2013-06-02 07:59:00,
2013-06-02 04:04:00,69.6,63.5,28.91,ESE,113,0.0,0.0,81,0.00,,SKC,0.00,VWS V14.00,2013-06-02 08:04:00,
2013-06-02 04:09:00,69.6,63.5,28.91,ESE,112,0.0,0.0,81,0.00,,SKC,0.00,VWS V14.00,2013-06-02 08:09:00,
2013-06-02 04:14:00,69.6,63.5,28.91,ESE,112,0.0,0.0,81,0.00,,SKC,0.00,VWS V14.00,2013-06-02 08:14:00,
2013-06-02 04:19:00,69.8,63.7,28.91,ESE,112,0.0,0.0,81,0.00,,SKC,0.00,VWS V14.00,2013-06-02 08:19:00,
2013-06-02 04:24:00,69.8,63.7,28.91,ESE,112,0.0,0.0,81,0.00,,SKC,0.00,VWS V14.00,2013-06-02 08:24:00,
2013-06-02 04:29:00,69.6,63.9,28.91,ESE,112,0.0,0.0,82,0.00,,SKC,0.00,VWS V14.00,2013-06-02 08:29:00,
2013-06-02 04:34:00,69.6,63.9,28.88,ESE,112,0.0,0.0,82,0.00,,SKC,0.00,VWS V14.00,2013-06-02 08:34:00,
2013-06-02 04:39:00,69.6,63.9,28.88,ESE,112,0.0,0.0,82,0.00,,SKC,0.00,VWS V14.00,2013-06-02 08:39:00,
2013-06-02 04:44:00,69.6,63.9,28.88,ESE,113,0.0,0.0,82,0.00,,SKC,0.00,VWS V14.00,2013-06-02 08:44:00,
2013-06-02 04:49:00,69.6,63.9,28.88,ESE,113,0.0,0.0,82,0.00,,SKC,0.00,VWS V14.00,2013-06-02 08:49:00,
2013-06-02 04:54:00,69.6,63.9,28.88,ESE,112,0.0,0.0,82,0.00,,SKC,0.00,VWS V14.00,2013-06-02 08:54:00,
2013-06-02 04:59:00,69.8,64.1,28.88,ESE,113,0.0,0.0,82,0.00,,SKC,0.00,VWS V14.00,2013-06-02 08:59:00,
2013-06-02 05:04:00,69.6,63.9,28.88,ESE,112,0.0,0.0,82,0.00,,SKC,0.00,VWS V14.00,2013-06-02 09:04:00,
2013-06-02 05:09:00,69.6,64.2,28.88,ESE,112,0.0,0.0,83,0.00,,SKC,0.00,VWS V14.00,2013-06-02 09:09:00,
2013-06-02 05:14:00,69.8,64.1,28.88,ESE,112,0.0,0.0,82,0.00,,SKC,0.00,VWS V14.00,2013-06-02 09:14:00,
2013-06-02 05:19:00,69.8,64.1,28.88,ESE,112,0.0,0.0,82,0.00,,SKC,0.00,VWS V14.00,2013-06-02 09:19:00,
2013-06-02 05:24:00,69.8,64.1,28.88,ESE,112,0.0,0.0,82,0.00,,SKC,0.00,VWS V14.00,2013-06-02 09:24:00,
2013-06-02 05:29:00,69.8,64.4,28.88,ESE,118,0.0,0.0,83,0.00,,SKC,0.00,VWS V14.00,2013-06-02 09:29:00,
2013-06-02 05:34:00,69.8,64.4,28.88,ESE,118,0.0,0.0,83,0.00,,SKC,0.00,VWS V14.00,2013-06-02 09:34:00,
2013-06-02 05:39:00,69.8,64.4,28.88,ESE,118,0.0,0.0,83,0.00,,SKC,0.00,VWS V14.00,2013-06-02 09:39:00,
2013-06-02 05:44:00,69.8,64.4,28.88,ESE,118,0.0,0.0,83,0.00,,SKC,0.00,VWS V14.00,2013-06-02 09:44:00,
2013-06-02 05:49:00,69.8,64.4,28.91,ESE,118,0.0,0.0,83,0.00,,SKC,0.00,VWS V14.00,2013-06-02 09:49:00,
2013-06-02 05:54:00,69.8,64.4,28.91,SSW,196,0.0,0.0,83,0.00,,SKC,0.00,VWS V14.00,2013-06-02 09:54:00,
2013-06-02 05:59:00,69.8,64.4,28.91,SSE,161,0.0,0.0,83,0.00,,SKC,0.00,VWS V14.00,2013-06-02 09:59:00,
2013-06-02 06:04:00,69.8,64.4,28.91,East,98,0.0,0.0,83,0.04,,SKC,0.04,VWS V14.00,2013-06-02 10:04:00,
2013-06-02 06:09:00,69.8,64.4,28.91,SSE,148,0.0,4.5,83,0.04,,SKC,0.04,VWS V14.00,2013-06-02 10:09:00,
2013-06-02 06:14:00,69.6,64.6,28.91,ESE,110,0.0,0.0,84,0.08,,SKC,0.08,VWS V14.00,2013-06-02 10:14:00,
2013-06-02 06:19:00,69.6,64.6,28.91,ESE,110,0.0,0.0,84,0.12,,SKC,0.12,VWS V14.00,2013-06-02 10:19:00,
2013-06-02 06:24:00,69.6,64.6,28.91,ESE,113,0.0,0.0,84,0.16,,SKC,0.16,VWS V14.00,2013-06-02 10:24:00,
2013-06-02 06:29:00,69.6,64.6,28.91,SSW,207,0.0,0.0,84,0.20,,SKC,0.20,VWS V14.00,2013-06-02 10:29:00,
2013-06-02 06:34:00,69.6,64.6,28.91,East,101,0.0,2.2,84,0.20,,SKC,0.20,VWS V14.00,2013-06-02 10:34:00,
2013-06-02 06:39:00,69.6,64.6,28.91,East,101,0.0,2.2,84,0.24,,SKC,0.24,VWS V14.00,2013-06-02 10:39:00,
2013-06-02 06:44:00,69.6,64.6,28.91,SE,130,0.0,3.6,84,0.28,,SKC,0.28,VWS V14.00,2013-06-02 10:44:00,
2013-06-02 06:49:00,69.6,64.9,28.91,ESE,122,3.2,6.3,85,0.44,,SKC,0.44,VWS V14.00,2013-06-02 10:49:00,
2013-06-02 06:54:00,69.3,64.6,28.91,SSE,154,3.2,4.0,85,0.44,,SKC,0.44,VWS V14.00,2013-06-02 10:54:00,
2013-06-02 06:59:00,69.3,64.6,28.91,SSE,167,2.7,4.0,85,0.44,,SKC,0.44,VWS V14.00,2013-06-02 10:59:00,
2013-06-02 07:04:00,69.1,64.4,28.91,SSW,200,2.7,3.6,85,0.44,,SKC,0.44,VWS V14.00,2013-06-02 11:04:00,
2013-06-02 07:09:00,69.1,64.7,28.91,SE,136,0.0,3.6,86,0.48,,SKC,0.48,VWS V14.00,2013-06-02 11:09:00,
2013-06-02 07:14:00,69.3,64.9,28.91,SSE,153,0.0,5.4,86,0.44,,SKC,0.48,VWS V14.00,2013-06-02 11:14:00,
2013-06-02 07:19:00,69.1,64.7,28.91,SE,125,3.2,5.4,86,0.44,,SKC,0.48,VWS V14.00,2013-06-02 11:19:00,
2013-06-02 07:24:00,69.1,64.7,28.91,SE,134,0.0,0.0,86,0.36,,SKC,0.48,VWS V14.00,2013-06-02 11:24:00,
2013-06-02 07:29:00,69.1,64.7,28.91,ESE,104,0.0,3.6,86,0.40,,SKC,0.52,VWS V14.00,2013-06-02 11:29:00,
2013-06-02 07:34:00,69.1,64.7,28.91,ESE,121,0.0,0.0,86,0.32,,SKC,0.52,VWS V14.00,2013-06-02 11:34:00,
2013-06-02 07:39:00,69.1,65.1,28.91,ESE,121,0.0,0.0,87,0.32,,SKC,0.52,VWS V14.00,2013-06-02 11:39:00,
2013-06-02 07:44:00,69.1,65.1,28.91,ESE,119,0.0,0.0,87,0.32,,SKC,0.56,VWS V14.00,2013-06-02 11:44:00,
2013-06-02 07:49:00,69.3,65.2,28.91,ESE,117,2.7,3.6,87,0.32,,SKC,0.56,VWS V14.00,2013-06-02 11:49:00,
2013-06-02 07:54:00,69.1,65.1,28.91,SSW,200,0.0,2.2,87,0.20,,SKC,0.64,VWS V14.00,2013-06-02 11:54:00,
2013-06-02 07:59:00,69.1,65.1,28.91,SSW,200,0.0,2.2,87,0.24,,SKC,0.68,VWS V14.00,2013-06-02 11:59:00,
2013-06-02 08:04:00,69.1,65.1,28.91,South,186,0.0,0.0,87,0.28,,SKC,0.72,VWS V14.00,2013-06-02 12:04:00,
2013-06-02 08:09:00,69.1,65.1,28.91,SE,144,3.2,4.9,87,0.32,,SKC,0.76,VWS V14.00,2013-06-02 12:09:00,
2013-06-02 08:14:00,69.1,65.1,28.91,South,175,0.0,4.0,87,0.40,,SKC,0.87,VWS V14.00,2013-06-02 12:14:00,
2013-06-02 08:19:00,68.9,64.9,28.91,SSE,151,0.0,4.0,87,0.48,,SKC,0.95,VWS V14.00,2013-06-02 12:19:00,
2013-06-02 08:24:00,68.9,65.2,28.91,SSE,151,0.0,0.0,88,0.60,,SKC,1.07,VWS V14.00,2013-06-02 12:24:00,
2013-06-02 08:29:00,68.9,65.2,28.91,SSE,151,0.0,0.0,88,0.64,,SKC,1.11,VWS V14.00,2013-06-02 12:29:00,
2013-06-02 08:34:00,68.7,65.0,28.91,SSE,151,0.0,0.0,88,0.68,,SKC,1.19,VWS V14.00,2013-06-02 12:34:00,
2013-06-02 08:40:00,68.7,65.0,28.91,SSE,151,0.0,0.0,88,0.76,,SKC,1.27,VWS V14.00,2013-06-02 12:40:00,
2013-06-02 08:45:00,68.7,65.0,28.91,SSE,151,0.0,0.0,88,0.76,,SKC,1.27,VWS V14.00,2013-06-02 12:45:00,
2013-06-02 08:50:00,68.7,65.0,28.91,SSE,151,0.0,0.0,88,0.84,,SKC,1.35,VWS V14.00,2013-06-02 12:50:00,
2013-06-02 08:55:00,68.5,64.8,28.91,SSW,197,0.0,3.1,88,0.95,,SKC,1.51,VWS V14.00,2013-06-02 12:55:00,
2013-06-02 09:00:00,68.4,64.7,28.91,SSW,196,0.0,3.1,88,0.99,,SKC,1.55,VWS V14.00,2013-06-02 13:00:00,
2013-06-02 09:05:00,68.2,64.5,28.91,SSW,196,0.0,0.0,88,0.91,,SKC,1.59,VWS V14.00,2013-06-02 13:05:00,
2013-06-02 09:10:00,68.4,64.7,28.91,SSW,196,0.0,0.0,88,0.91,,SKC,1.59,VWS V14.00,2013-06-02 13:10:00,
2013-06-02 09:15:00,68.4,64.7,28.91,SSW,196,0.0,0.0,88,0.84,,SKC,1.59,VWS V14.00,2013-06-02 13:15:00,
2013-06-02 09:20:00,68.4,64.7,28.91,SW,222,0.0,0.0,88,0.87,,SKC,1.63,VWS V14.00,2013-06-02 13:20:00,
2013-06-02 09:25:00,68.4,64.7,28.91,SW,222,0.0,0.0,88,0.64,,SKC,1.63,VWS V14.00,2013-06-02 13:25:00,
2013-06-02 09:30:00,68.5,64.8,28.91,SW,222,0.0,0.0,88,0.64,,SKC,1.63,VWS V14.00,2013-06-02 13:30:00,
2013-06-02 09:35:00,68.5,65.2,28.91,SSE,153,0.0,0.0,89,0.56,,SKC,1.67,VWS V14.00,2013-06-02 13:35:00,
2013-06-02 09:40:00,68.4,65.0,28.91,SSE,167,0.0,0.0,89,0.56,,SKC,1.67,VWS V14.00,2013-06-02 13:40:00,
2013-06-02 09:45:00,68.4,65.0,28.91,SSW,198,0.0,0.0,89,0.40,,SKC,1.67,VWS V14.00,2013-06-02 13:45:00,
2013-06-02 09:50:00,68.4,65.0,28.91,South,188,0.0,0.0,89,0.44,,SKC,1.71,VWS V14.00,2013-06-02 13:50:00,
2013-06-02 09:55:00,68.4,65.0,28.91,SSW,199,0.0,0.0,89,0.36,,SKC,1.71,VWS V14.00,2013-06-02 13:55:00,
2013-06-02 10:00:00,68.5,65.2,28.91,SSW,203,0.0,0.0,89,0.36,,SKC,1.71,VWS V14.00,2013-06-02 14:00:00,
2013-06-02 10:05:00,68.5,65.2,28.91,SSW,198,0.0,0.0,89,0.16,,SKC,1.71,VWS V14.00,2013-06-02 14:05:00,
2013-06-02 10:10:00,68.5,65.2,28.91,South,182,0.0,3.6,89,0.24,,SKC,1.79,VWS V14.00,2013-06-02 14:10:00,
2013-06-02 10:15:00,68.4,65.0,28.91,SW,233,0.0,0.0,89,0.28,,SKC,1.87,VWS V14.00,2013-06-02 14:15:00,
2013-06-02 10:20:00,68.4,65.0,28.91,SW,233,0.0,0.0,89,0.28,,SKC,1.87,VWS V14.00,2013-06-02 14:20:00,
2013-06-02 10:25:00,68.4,65.0,28.91,SW,233,0.0,0.0,89,0.28,,SKC,1.91,VWS V14.00,2013-06-02 14:25:00,
2013-06-02 10:30:00,68.4,65.0,28.91,SW,233,0.0,0.0,89,0.36,,SKC,1.99,VWS V14.00,2013-06-02 14:30:00,
2013-06-02 10:35:00,68.4,65.0,28.97,WNW,301,0.0,3.6,89,0.48,,SKC,2.11,VWS V14.00,2013-06-02 14:35:00,
2013-06-02 10:40:00,68.0,64.6,28.97,SSE,167,4.3,4.9,89,0.72,,SKC,2.35,VWS V14.00,2013-06-02 14:40:00,
2013-06-02 10:45:00,67.5,64.1,28.97,East,97,2.7,5.8,89,0.80,,SKC,2.47,VWS V14.00,2013-06-02 14:45:00,
2013-06-02 10:50:00,66.7,63.4,28.94,SSE,162,0.0,5.8,89,0.91,,SKC,2.58,VWS V14.00,2013-06-02 14:50:00,
2013-06-02 10:55:00,66.6,63.2,28.94,SSE,165,0.0,0.0,89,0.95,,SKC,2.66,VWS V14.00,2013-06-02 14:55:00,
2013-06-02 11:00:00,66.6,63.2,28.94,ENE,73,0.0,0.0,89,1.07,,SKC,2.78,VWS V14.00,2013-06-02 15:00:00,
2013-06-02 11:05:00,66.4,63.4,28.91,ESE,122,0.0,0.0,90,1.11,,SKC,2.82,VWS V14.00,2013-06-02 15:05:00,
2013-06-02 11:10:00,66.4,63.4,28.91,ESE,122,0.0,0.0,90,1.15,,SKC,2.86,VWS V14.00,2013-06-02 15:10:00,
2013-06-02 11:15:00,66.4,63.4,28.91,East,85,0.0,0.0,90,1.07,,SKC,2.86,VWS V14.00,2013-06-02 15:15:00,
2013-06-02 11:20:00,66.2,63.2,28.94,East,85,0.0,0.0,90,1.07,,SKC,2.86,VWS V14.00,2013-06-02 15:20:00,
2013-06-02 11:25:00,66.2,63.2,28.94,NNE,23,0.0,0.0,90,0.99,,SKC,2.86,VWS V14.00,2013-06-02 15:25:00,
2013-06-02 11:30:00,66.2,63.2,28.94,NNE,23,0.0,0.0,90,0.99,,SKC,2.86,VWS V14.00,2013-06-02 15:30:00,
2013-06-02 11:35:00,66.2,63.2,28.94,NNE,23,0.0,0.0,90,0.87,,SKC,2.86,VWS V14.00,2013-06-02 15:35:00,
2013-06-02 11:40:00,66.4,63.4,28.94,NNE,23,0.0,0.0,90,0.87,,SKC,2.86,VWS V14.00,2013-06-02 15:40:00,
2013-06-02 11:45:00,66.6,63.5,28.94,NNE,23,0.0,0.0,90,0.52,,SKC,2.86,VWS V14.00,2013-06-02 15:45:00,
2013-06-02 11:50:00,66.6,63.5,28.94,South,185,0.0,0.0,90,0.56,,SKC,2.90,VWS V14.00,2013-06-02 15:50:00,
2013-06-02 11:55:00,66.6,63.5,28.94,NE,36,0.0,0.0,90,0.44,,SKC,3.02,VWS V14.00,2013-06-02 15:55:00,
2013-06-02 12:00:00,66.6,63.5,28.94,ESE,122,0.0,0.0,90,0.48,,SKC,0.00,VWS V14.00,2013-06-02 16:00:00,
2013-06-02 12:05:00,66.4,63.4,28.94,NNE,29,0.0,0.0,90,0.28,,SKC,3.06,VWS V14.00,2013-06-02 16:05:00,
2013-06-02 12:10:00,66.4,63.4,28.94,NNE,29,0.0,0.0,90,0.28,,SKC,3.06,VWS V14.00,2013-06-02 16:10:00,
2013-06-02 12:15:00,66.7,63.7,28.94,NNE,29,0.0,0.0,90,0.20,,SKC,3.06,VWS V14.00,2013-06-02 16:15:00,
2013-06-02 12:20:00,67.1,64.4,28.91,NNE,29,0.0,0.0,91,0.20,,SKC,3.06,VWS V14.00,2013-06-02 16:20:00,
2013-06-02 12:25:00,67.6,64.9,28.91,NE,56,0.0,0.0,91,0.20,,SKC,3.06,VWS V14.00,2013-06-02 16:25:00,
2013-06-02 12:30:00,68.2,65.5,28.91,WSW,249,0.0,0.0,91,0.20,,SKC,3.06,VWS V14.00,2013-06-02 16:30:00,
2013-06-02 12:35:00,68.4,65.6,28.91,NNE,19,0.0,3.1,91,0.20,,SKC,3.06,VWS V14.00,2013-06-02 16:35:00,
2013-06-02 12:40:00,68.4,65.6,28.91,East,81,0.0,3.1,91,0.20,,SKC,3.06,VWS V14.00,2013-06-02 16:40:00,
2013-06-02 12:45:00,68.5,65.8,28.91,South,187,3.8,3.8,91,0.20,,SKC,3.06,VWS V14.00,2013-06-02 16:45:00,
2013-06-02 12:50:00,69.1,66.3,28.91,East,100,0.0,0.0,91,0.16,,SKC,3.06,VWS V14.00,2013-06-02 16:50:00,
2013-06-02 12:55:00,70.0,67.2,28.91,NNE,18,0.0,4.9,91,0.16,,SKC,3.06,VWS V14.00,2013-06-02 16:55:00,
2013-06-02 13:00:00,70.9,68.4,28.91,NW,321,0.0,4.9,92,0.16,,SKC,3.06,VWS V14.00,2013-06-02 17:00:00,
2013-06-02 13:05:00,71.4,69.0,28.91,SW,217,4.8,4.8,92,0.00,,SKC,3.06,VWS V14.00,2013-06-02 17:05:00,
2013-06-02 13:10:00,71.8,69.0,28.91,ESE,118,0.0,0.0,91,0.00,,SKC,3.06,VWS V14.00,2013-06-02 17:10:00,
2013-06-02 13:15:00,71.8,69.0,28.91,SSW,212,2.7,3.6,91,0.00,,SKC,3.06,VWS V14.00,2013-06-02 17:15:00,
2013-06-02 13:20:00,71.2,68.5,28.91,NE,35,0.0,0.0,91,0.00,,SKC,3.06,VWS V14.00,2013-06-02 17:20:00,
2013-06-02 13:25:00,71.2,68.5,28.91,East,89,0.0,2.7,91,0.00,,SKC,3.06,VWS V14.00,2013-06-02 17:25:00,
2013-06-02 13:30:00,71.8,69.0,28.91,SW,216,3.2,3.2,91,0.00,,SKC,3.06,VWS V14.00,2013-06-02 17:30:00,
2013-06-02 13:35:00,72.5,70.1,28.91,SW,216,0.0,3.1,92,0.00,,SKC,3.06,VWS V14.00,2013-06-02 17:35:00,
2013-06-02 13:41:00,72.9,70.4,28.91,WSW,254,0.0,0.0,92,0.00,,SKC,3.06,VWS V14.00,2013-06-02 17:41:00,
2013-06-02 13:46:00,72.9,70.4,28.91,WSW,254,0.0,0.0,92,0.00,,SKC,3.06,VWS V14.00,2013-06-02 17:46:00,
2013-06-02 13:51:00,73.0,70.3,28.88,SSW,212,0.0,0.0,91,0.00,,SKC,3.06,VWS V14.00,2013-06-02 17:51:00,
2013-06-02 13:56:00,73.4,70.6,28.88,NNE,20,3.8,3.8,91,0.00,,SKC,3.06,VWS V14.00,2013-06-02 17:56:00,
2013-06-02 14:01:00,73.6,70.8,28.88,NE,46,0.0,0.0,91,0.00,,SKC,3.06,VWS V14.00,2013-06-02 18:01:00,
2013-06-02 14:06:00,74.1,71.3,28.88,NNE,32,0.0,2.7,91,0.00,,SKC,3.06,VWS V14.00,2013-06-02 18:06:00,
2013-06-02 14:11:00,74.5,71.7,28.88,NNE,32,0.0,0.0,91,0.00,,SKC,3.06,VWS V14.00,2013-06-02 18:11:00,
2013-06-02 14:16:00,74.8,72.0,28.88,NNE,29,0.0,0.0,91,0.00,,SKC,3.06,VWS V14.00,2013-06-02 18:16:00,
2013-06-02 14:21:00,75.2,72.1,28.88,NNE,26,0.0,0.0,90,0.00,,SKC,3.06,VWS V14.00,2013-06-02 18:21:00,
2013-06-02 14:26:00,75.7,72.6,28.88,NNE,26,0.0,0.0,90,0.00,,SKC,3.06,VWS V14.00,2013-06-02 18:26:00,
2013-06-02 14:31:00,76.5,73.3,28.88,ENE,65,0.0,0.0,90,0.00,,SKC,3.06,VWS V14.00,2013-06-02 18:31:00,
2013-06-02 14:36:00,77.0,73.5,28.88,South,177,0.0,3.1,89,0.00,,SKC,3.06,VWS V14.00,2013-06-02 18:36:00,
2013-06-02 14:41:00,77.4,73.9,28.88,SSW,197,0.0,0.0,89,0.00,,SKC,3.06,VWS V14.00,2013-06-02 18:41:00,
2013-06-02 14:46:00,77.5,73.7,28.88,SSE,156,0.0,0.0,88,0.00,,SKC,3.06,VWS V14.00,2013-06-02 18:46:00,
2013-06-02 14:51:00,77.5,73.7,28.88,SSE,158,0.0,5.4,88,0.00,,SKC,3.06,VWS V14.00,2013-06-02 18:51:00,
2013-06-02 14:56:00,77.5,73.7,28.88,SSE,158,0.0,5.4,88,0.00,,SKC,3.06,VWS V14.00,2013-06-02 18:56:00,
2013-06-02 15:01:00,77.9,74.1,28.88,SSE,158,0.0,0.0,88,0.00,,SKC,3.06,VWS V14.00,2013-06-02 19:01:00,
2013-06-02 15:06:00,78.1,74.2,28.88,ESE,118,0.0,0.0,88,0.00,,SKC,3.06,VWS V14.00,2013-06-02 19:06:00,
2013-06-02 15:11:00,78.4,74.6,28.88,SE,124,0.0,0.0,88,0.00,,SKC,3.06,VWS V14.00,2013-06-02 19:11:00,
2013-06-02 15:16:00,79.0,74.8,28.88,NW,308,0.0,0.0,87,0.00,,SKC,3.06,VWS V14.00,2013-06-02 19:16:00,
2013-06-02 15:21:00,78.8,74.3,28.88,West,265,0.0,0.0,86,0.00,,SKC,3.06,VWS V14.00,2013-06-02 19:21:00,
2013-06-02 15:26:00,78.6,74.1,28.88,West,265,0.0,0.0,86,0.00,,SKC,3.06,VWS V14.00,2013-06-02 19:26:00,
2013-06-02 15:31:00,78.8,74.3,28.88,SSE,168,0.0,0.0,86,0.00,,SKC,3.06,VWS V14.00,2013-06-02 19:31:00,
2013-06-02 15:36:00,79.0,74.4,28.88,ESE,123,0.0,0.0,86,0.00,,SKC,3.06,VWS V14.00,2013-06-02 19:36:00,
2013-06-02 15:41:00,79.2,74.6,28.88,ESE,123,0.0,0.0,86,0.00,,SKC,3.06,VWS V14.00,2013-06-02 19:41:00,
2013-06-02 15:46:00,79.3,74.8,28.88,SSE,167,0.0,0.0,86,0.00,,SKC,3.06,VWS V14.00,2013-06-02 19:46:00,
2013-06-02 15:51:00,79.5,74.6,28.88,SE,137,4.3,4.9,85,0.00,,SKC,3.06,VWS V14.00,2013-06-02 19:51:00,
2013-06-02 15:56:00,79.5,74.6,28.88,ESE,116,0.0,4.9,85,0.00,,SKC,3.06,VWS V14.00,2013-06-02 19:56:00,
2013-06-02 16:01:00,79.5,74.3,28.88,ESE,116,0.0,0.0,84,0.00,,SKC,3.06,VWS V14.00,2013-06-02 20:01:00,
2013-06-02 16:06:00,79.3,74.1,28.85,WSW,239,0.0,5.4,84,0.00,,SKC,3.06,VWS V14.00,2013-06-02 20:06:00,
2013-06-02 16:11:00,79.3,73.7,28.85,NNE,16,0.0,0.0,83,0.00,,SKC,3.06,VWS V14.00,2013-06-02 20:11:00,
2013-06-02 16:16:00,79.2,73.6,28.85,SSE,158,3.2,4.0,83,0.00,,SKC,3.06,VWS V14.00,2013-06-02 20:16:00,
2013-06-02 16:21:00,79.0,73.4,28.85,South,171,0.0,3.6,83,0.00,,SKC,3.06,VWS V14.00,2013-06-02 20:21:00,
2013-06-02 16:26:00,78.6,73.0,28.85,ESE,107,0.0,3.6,83,0.00,,SKC,3.06,VWS V14.00,2013-06-02 20:26:00,
2013-06-02 16:31:00,78.4,72.8,28.85,SSE,153,0.0,0.0,83,0.00,,SKC,3.06,VWS V14.00,2013-06-02 20:31:00,
2013-06-02 16:36:00,78.1,72.1,28.85,SE,125,0.0,5.8,82,0.00,,SKC,3.06,VWS V14.00,2013-06-02 20:36:00,
2013-06-02 16:41:00,77.7,71.1,28.85,SW,222,0.0,3.1,80,0.00,,SKC,3.06,VWS V14.00,2013-06-02 20:41:00,
2013-06-02 16:46:00,77.7,71.4,28.85,South,184,3.8,3.8,81,0.00,,SKC,3.06,VWS V14.00,2013-06-02 20:46:00,
2013-06-02 16:51:00,77.5,71.2,28.85,ESE,109,0.0,3.1,81,0.00,,SKC,3.06,VWS V14.00,2013-06-02 20:51:00,
2013-06-02 16:56:00,77.7,71.4,28.85,SE,129,0.0,5.4,81,0.00,,SKC,3.06,VWS V14.00,2013-06-02 20:56:00,
2013-06-02 17:01:00,77.9,71.2,28.85,SSE,161,0.0,6.3,80,0.00,,SKC,3.06,VWS V14.00,2013-06-02 21:01:00,
2013-06-02 17:06:00,77.9,71.2,28.85,SE,141,3.2,6.3,80,0.00,,SKC,3.06,VWS V14.00,2013-06-02 21:06:00,
2013-06-02 17:11:00,77.7,71.1,28.85,NW,309,0.0,2.7,80,0.00,,SKC,3.06,VWS V14.00,2013-06-02 21:11:00,
2013-06-02 17:16:00,77.7,71.1,28.85,South,172,0.0,5.4,80,0.00,,SKC,3.06,VWS V14.00,2013-06-02 21:16:00,
2013-06-02 17:21:00,77.7,70.7,28.85,SE,146,0.0,0.0,79,0.00,,SKC,3.06,VWS V14.00,2013-06-02 21:21:00,
2013-06-02 17:26:00,77.7,70.7,28.85,SE,130,0.0,5.4,79,0.00,,SKC,3.06,VWS V14.00,2013-06-02 21:26:00,
2013-06-02 17:31:00,77.5,70.5,28.85,SSW,206,0.0,4.0,79,0.00,,SKC,3.06,VWS V14.00,2013-06-02 21:31:00,
2013-06-02 17:36:00,77.4,70.0,28.82,North,0,0.0,4.0,78,0.00,,SKC,3.06,VWS V14.00,2013-06-02 21:36:00,
2013-06-02 17:41:00,77.4,70.3,28.82,SSW,204,0.0,4.0,79,0.00,,SKC,3.06,VWS V14.00,2013-06-02 21:41:00,
2013-06-02 17:46:00,77.4,70.3,28.82,SSW,194,4.8,4.8,79,0.00,,SKC,3.06,VWS V14.00,2013-06-02 21:46:00,
2013-06-02 17:51:00,77.2,70.2,28.82,SW,215,3.8,5.4,79,0.00,,SKC,3.06,VWS V14.00,2013-06-02 21:51:00,
2013-06-02 17:56:00,76.8,69.8,28.82,South,169,0.0,5.4,79,0.00,,SKC,3.06,VWS V14.00,2013-06-02 21:56:00,
2013-06-02 18:01:00,76.6,69.6,28.82,SSE,155,0.0,0.0,79,0.00,,SKC,3.06,VWS V14.00,2013-06-02 22:01:00,
2013-06-02 18:06:00,76.6,69.6,28.82,South,170,0.0,0.0,79,0.00,,SKC,3.06,VWS V14.00,2013-06-02 22:06:00,
2013-06-02 18:11:00,76.6,70.0,28.82,South,170,0.0,3.6,80,0.00,,SKC,3.06,VWS V14.00,2013-06-02 22:11:00,
2013-06-02 18:16:00,76.5,69.5,28.82,ESE,117,6.4,6.4,79,0.00,,SKC,3.06,VWS V14.00,2013-06-02 22:16:00,
2013-06-02 18:21:00,75.9,68.6,28.85,North,5,2.7,3.6,78,0.00,,SKC,3.06,VWS V14.00,2013-06-02 22:21:00,
2013-06-02 18:26:00,75.2,67.5,28.85,NNE,29,3.2,4.5,77,0.00,,SKC,3.06,VWS V14.00,2013-06-02 22:26:00,
2013-06-02 18:31:00,74.5,66.8,28.85,NNE,30,0.0,0.0,77,0.00,,SKC,3.06,VWS V14.00,2013-06-02 22:31:00,
2013-06-02 18:36:00,73.9,65.9,28.85,NNE,22,0.0,3.6,76,0.00,,SKC,3.06,VWS V14.00,2013-06-02 22:36:00,
2013-06-02 18:41:00,73.6,65.6,28.85,NNE,31,0.0,2.7,76,0.00,,SKC,3.06,VWS V14.00,2013-06-02 22:41:00,
2013-06-02 18:46:00,73.6,65.2,28.85,NE,40,0.0,3.1,75,0.00,,SKC,3.06,VWS V14.00,2013-06-02 22:46:00,
2013-06-02 18:51:00,73.4,65.4,28.85,NE,34,0.0,0.0,76,0.00,,SKC,3.06,VWS V14.00,2013-06-02 22:51:00,
2013-06-02 18:56:00,73.4,65.4,28.85,NE,34,0.0,0.0,76,0.00,,SKC,3.06,VWS V14.00,2013-06-02 22:56:00,
2013-06-02 19:01:00,73.4,65.4,28.85,NE,34,0.0,0.0,76,0.00,,SKC,3.06,VWS V14.00,2013-06-02 23:01:00,
2013-06-02 19:06:00,73.4,65.4,28.85,NNE,32,0.0,0.0,76,0.00,,SKC,3.06,VWS V14.00,2013-06-02 23:06:00,
2013-06-02 19:11:00,73.4,65.4,28.85,NNE,26,0.0,0.0,76,0.00,,SKC,3.06,VWS V14.00,2013-06-02 23:11:00,
2013-06-02 19:16:00,73.2,65.2,28.85,NNE,29,3.2,3.6,76,0.00,,SKC,3.06,VWS V14.00,2013-06-02 23:16:00,
2013-06-02 19:22:00,73.2,65.2,28.85,NE,35,0.0,0.0,76,0.00,,SKC,3.06,VWS V14.00,2013-06-02 23:22:00,
2013-06-02 19:27:00,73.0,65.0,28.85,NNE,26,0.0,4.0,76,0.00,,SKC,3.06,VWS V14.00,2013-06-02 23:27:00,
2013-06-02 19:32:00,73.0,65.0,28.85,NNE,28,0.0,2.2,76,0.00,,SKC,3.06,VWS V14.00,2013-06-02 23:32:00,
2013-06-02 19:37:00,72.7,64.7,28.85,NNE,27,2.7,3.6,76,0.00,,SKC,3.06,VWS V14.00,2013-06-02 23:37:00,
2013-06-02 19:42:00,72.7,64.7,28.85,NNE,27,0.0,0.0,76,0.00,,SKC,3.06,VWS V14.00,2013-06-02 23:42:00,
2013-06-02 19:47:00,72.5,64.5,28.85,NE,38,0.0,3.6,76,0.00,,SKC,3.06,VWS V14.00,2013-06-02 23:47:00,
2013-06-02 19:52:00,72.5,64.5,28.85,NE,34,0.0,3.1,76,0.00,,SKC,3.06,VWS V14.00,2013-06-02 23:52:00,
2013-06-02 19:57:00,72.5,64.5,28.85,NE,34,0.0,3.1,76,0.00,,SKC,3.06,VWS V14.00,2013-06-02 23:57:00,
2013-06-02 20:02:00,72.3,64.3,28.85,NE,34,0.0,0.0,76,0.00,,SKC,3.06,VWS V14.00,2013-06-03 00:02:00,
2013-06-02 20:07:00,72.3,64.3,28.85,NE,34,0.0,0.0,76,0.00,,SKC,3.06,VWS V14.00,2013-06-03 00:07:00,
2013-06-02 20:12:00,72.1,64.2,28.85,NE,34,0.0,0.0,76,0.00,,SKC,3.06,VWS V14.00,2013-06-03 00:12:00,
2013-06-02 20:17:00,72.1,64.2,28.85,NE,34,0.0,0.0,76,0.00,,SKC,3.06,VWS V14.00,2013-06-03 00:17:00,
2013-06-02 20:22:00,72.0,64.4,28.85,NE,34,0.0,0.0,77,0.00,,SKC,3.06,VWS V14.00,2013-06-03 00:22:00,
2013-06-02 20:27:00,71.8,64.2,28.85,NNE,29,0.0,0.0,77,0.00,,SKC,3.06,VWS V14.00,2013-06-03 00:27:00,
2013-06-02 20:32:00,71.6,64.0,28.85,NNE,29,0.0,0.0,77,0.00,,SKC,3.06,VWS V14.00,2013-06-03 00:32:00,
2013-06-02 20:37:00,71.6,64.0,28.85,NNE,29,0.0,0.0,77,0.00,,SKC,3.06,VWS V14.00,2013-06-03 00:37:00,
2013-06-02 20:42:00,71.4,64.2,28.85,NNE,29,0.0,0.0,78,0.00,,SKC,3.06,VWS V14.00,2013-06-03 00:42:00,
2013-06-02 20:47:00,71.2,64.0,28.85,NNE,29,0.0,0.0,78,0.00,,SKC,3.06,VWS V14.00,2013-06-03 00:47:00,
2013-06-02 20:52:00,70.9,63.7,28.85,NNE,29,0.0,0.0,78,0.00,,SKC,3.06,VWS V14.00,2013-06-03 00:52:00,
2013-06-02 20:57:00,70.9,63.7,28.85,NNE,29,0.0,0.0,78,0.00,,SKC,3.06,VWS V14.00,2013-06-03 00:57:00,
2013-06-02 21:02:00,70.7,63.5,28.85,NNE,29,0.0,0.0,78,0.00,,SKC,3.06,VWS V14.00,2013-06-03 01:02:00,
2013-06-02 21:07:00,70.5,63.7,28.85,NNE,29,0.0,0.0,79,0.00,,SKC,3.06,VWS V14.00,2013-06-03 01:07:00,
2013-06-02 21:12:00,70.3,63.5,28.85,NNE,29,0.0,0.0,79,0.00,,SKC,3.06,VWS V14.00,2013-06-03 01:12:00,
2013-06-02 21:17:00,70.3,63.5,28.85,NNE,29,0.0,0.0,79,0.00,,SKC,3.06,VWS V14.00,2013-06-03 01:17:00,
2013-06-02 21:22:00,70.2,63.3,28.85,NNE,29,0.0,0.0,79,0.00,,SKC,3.06,VWS V14.00,2013-06-03 01:22:00,
2013-06-02 21:27:00,70.0,63.2,28.85,NNE,29,0.0,0.0,79,0.00,,SKC,3.06,VWS V14.00,2013-06-03 01:27:00,
2013-06-02 21:32:00,69.8,63.0,28.85,NNE,29,0.0,0.0,79,0.00,,SKC,3.06,VWS V14.00,2013-06-03 01:32:00,
2013-06-02 21:37:00,69.8,63.0,28.88,NNE,29,0.0,0.0,79,0.00,,SKC,3.06,VWS V14.00,2013-06-03 01:37:00,
2013-06-02 21:42:00,69.8,63.4,28.88,NNE,29,0.0,0.0,80,0.00,,SKC,3.06,VWS V14.00,2013-06-03 01:42:00,
2013-06-02 21:47:00,69.6,63.2,28.88,NNE,29,0.0,0.0,80,0.00,,SKC,3.06,VWS V14.00,2013-06-03 01:47:00,
2013-06-02 21:52:00,69.6,63.2,28.88,NNE,29,0.0,0.0,80,0.00,,SKC,3.06,VWS V14.00,2013-06-03 01:52:00,
2013-06-02 21:57:00,69.6,63.5,28.88,NNE,29,0.0,0.0,81,0.00,,SKC,3.06,VWS V14.00,2013-06-03 01:57:00,
2013-06-02 22:02:00,69.6,63.5,28.88,NNE,29,0.0,0.0,81,0.00,,SKC,3.06,VWS V14.00,2013-06-03 02:02:00,
2013-06-02 22:07:00,69.4,63.4,28.88,NNE,29,0.0,0.0,81,0.00,,SKC,3.06,VWS V14.00,2013-06-03 02:07:00,
2013-06-02 22:12:00,69.3,63.2,28.88,NNE,29,0.0,0.0,81,0.00,,SKC,3.06,VWS V14.00,2013-06-03 02:12:00,
2013-06-02 22:17:00,69.3,63.2,28.88,ENE,57,0.0,0.0,81,0.00,,SKC,3.06,VWS V14.00,2013-06-03 02:17:00,
2013-06-02 22:22:00,69.3,63.2,28.88,ESE,110,0.0,0.0,81,0.00,,SKC,3.06,VWS V14.00,2013-06-03 02:22:00,
2013-06-02 22:27:00,69.3,63.5,28.88,ESE,110,0.0,0.0,82,0.00,,SKC,3.06,VWS V14.00,2013-06-03 02:27:00,
2013-06-02 22:32:00,69.4,63.7,28.88,SE,124,0.0,0.0,82,0.00,,SKC,3.06,VWS V14.00,2013-06-03 02:32:00,
2013-06-02 22:37:00,69.4,63.7,28.88,East,93,0.0,0.0,82,0.00,,SKC,3.06,VWS V14.00,2013-06-03 02:37:00,
2013-06-02 22:42:00,69.4,63.7,28.88,East,93,0.0,0.0,82,0.00,,SKC,3.06,VWS V14.00,2013-06-03 02:42:00,
2013-06-02 22:47:00,69.3,63.5,28.88,East,93,0.0,0.0,82,0.00,,SKC,3.06,VWS V14.00,2013-06-03 02:47:00,
2013-06-02 22:52:00,69.1,63.4,28.88,East,93,0.0,0.0,82,0.00,,SKC,3.06,VWS V14.00,2013-06-03 02:52:00,
2013-06-02 22:57:00,69.1,63.4,28.88,East,93,0.0,0.0,82,0.00,,SKC,3.06,VWS V14.00,2013-06-03 02:57:00,
2013-06-02 23:02:00,69.1,63.4,28.88,East,93,0.0,0.0,82,0.00,,SKC,3.06,VWS V14.00,2013-06-03 03:02:00,
2013-06-02 23:07:00,68.9,63.2,28.88,North,9,0.0,0.0,82,0.00,,SKC,3.06,VWS V14.00,2013-06-03 03:07:00,
2013-06-02 23:12:00,69.1,63.4,28.88,North,9,0.0,0.0,82,0.00,,SKC,3.06,VWS V14.00,2013-06-03 03:12:00,
2013-06-02 23:17:00,69.1,63.4,28.88,North,9,0.0,0.0,82,0.00,,SKC,3.06,VWS V14.00,2013-06-03 03:17:00,
2013-06-02 23:22:00,69.1,63.7,28.88,NNE,19,0.0,0.0,83,0.00,,SKC,3.06,VWS V14.00,2013-06-03 03:22:00,
2013-06-02 23:27:00,69.1,63.7,28.88,NNE,23,0.0,0.0,83,0.00,,SKC,3.06,VWS V14.00,2013-06-03 03:27:00,
2013-06-02 23:32:00,69.1,63.7,28.88,NNE,30,0.0,2.2,83,0.00,,SKC,3.06,VWS V14.00,2013-06-03 03:32:00,
2013-06-02 23:37:00,69.1,63.7,28.88,NNE,30,0.0,2.2,83,0.00,,SKC,3.06,VWS V14.00,2013-06-03 03:37:00,
2013-06-02 23:42:00,69.1,63.7,28.88,NNE,30,0.0,0.0,83,0.00,,SKC,3.06,VWS V14.00,2013-06-03 03:42:00,
2013-06-02 23:47:00,68.9,63.5,28.88,NNE,30,0.0,0.0,83,0.00,,SKC,3.06,VWS V14.00,2013-06-03 03:47:00,
2013-06-02 23:52:00,68.9,63.5,28.88,NNE,30,0.0,0.0,83,0.00,,SKC,3.06,VWS V14.00,2013-06-03 03:52:00,
2013-06-02 23:57:00,68.7,63.3,28.88,NNE,30,0.0,0.0,83,0.00,,SKC,3.06,VWS V14.00,2013-06-03 03:57:00,